Home > Weather > Ndjamena > Past weeks

Flag for Chad Past Weather in Ndjamena, Chad — Yesterday and Last 2 Weeks

Now
104 °F

Passing clouds.


Feels Like: 114 °F
Forecast: 87 / 106 °F
Wind: 12 mph from West

Location: Ndjamena

Current Time: May 25, 2016 at 4:06:36 PM

Latest Report: May 25, 2016 at 3:00 PM


Visibility: N/A

Pressure: 29.80 "Hg

Humidity: 35%

Dew Point: 72 °F

Location of NdjamenaLocation

Past Weather in Ndjamena — Graph

°F

Ndjamena Temperature Yesterday

Maximum temperature yesterday: 106 °F (at 2:00 PM)
Minimum temperature yesterday: 84 °F (at 11:00 PM)
Average temperature yesterday: 94 °F

High & Low Weather Summary for the Past Weeks

 TemperatureHumidityPressure
High111 °F (May 10, 3:00 PM)94% (May 21, 5:00 AM)30.09 "Hg (May 21, 5:00 AM)
Low73 °F (May 21, 5:00 AM)15% (May 12, 4:00 PM)29.68 "Hg (May 10, 6:00 PM)
Average92 °F47%29.82 "Hg
* Reported May 10 2:00 PM — May 25 2:00 PM, Ndjamena, Weather by CustomWeather, © 2016

Note: Actual official high and low records may vary slightly from our data, if they occured in-between our weather recording intervals... More about our weather records

Advertising

Ndjamena Weather History for the Previous 24 Hours

Scroll right to see more
 ConditionsComfort  
Time TempWeatherWind HumidityBarometerVisibility
2:00 PM
Wed, May 25
104 °FPassing clouds.12 mph40%29.83 "HgN/A
1:00 PM102 °FPassing clouds.12 mph40%29.89 "HgN/A
12:00 PM99 °FSunny.12 mph44%29.92 "Hg10 mi
11:00 AM97 °FSunny.12 mph42%29.92 "Hg10 mi
10:00 AM93 °FSunny.7 mph47%29.95 "Hg10 mi
9:00 AM90 °FSunny.9 mph21%29.95 "Hg10 mi
8:00 AM86 °FSunny.7 mph20%29.92 "Hg10 mi
7:00 AM81 °FSunny.7 mph66%29.89 "Hg10 mi
6:00 AM79 °FSunny.7 mph65%29.89 "Hg10 mi
5:00 AM79 °FClear.5 mph65%29.86 "Hg10 mi
4:00 AM79 °FClear.5 mph65%29.86 "Hg10 mi
3:00 AM77 °FClear.7 mph74%29.86 "Hg10 mi
2:00 AM81 °FClear.9 mph66%29.89 "Hg10 mi
1:00 AM82 °FClear.12 mph66%29.89 "Hg10 mi
12:00 AM82 °FThunderstorms. Passing clouds.12 mph62%29.92 "Hg4 mi
11:00 PM
Tue, May 24
84 °FThunderstorms. Passing clouds.18 mph66%29.89 "Hg4 mi
10:00 PM86 °FThunderstorms. Passing clouds.18 mph55%29.92 "Hg4 mi
9:00 PM91 °FThunderstorms. Passing clouds.18 mph46%29.89 "Hg4 mi
8:00 PM93 °FClear.7 mph49%29.83 "Hg4 mi
7:00 PM99 °FDuststorm.7 mph27%29.83 "Hg2 mi
6:00 PM102 °FDuststorm.7 mph29%29.80 "Hg2 mi
5:00 PM104 °FDuststorm.12 mph28%29.83 "Hg2 mi
4:00 PM106 °FDuststorm.17 mph28%29.83 "Hg2 mi
Weather by CustomWeather, © 2016

See weather overviewHow to use our weather pages